sat.trackr.live / text

‹ back to catalog

QIANFAN-49

NORAD 62250 · 2024-232P

PAYLOAD ACTIVE UNKNOWN

§ Identity

Operator
Country
PRC
Launch date
2024-12-05
Launch site
TAISC
Launch vehicle
Mass (kg)
RCS (m²)

External: N2YO · Heavens-Above · Gunter

§ Orbital elements

Epoch: 2026-05-25T01:49:26.122656Z

Period
106.59 min
Inclination
89.0101°
Eccentricity
0.0016211
Mean motion
13.51007860 rev/d
Perigee alt
1,056.5 km
Apogee alt
1,080.6 km
Semi-major
7,446.7 km
B*
1.3694e-4
RAAN
24.8197°
Arg perigee
82.7345°
Mean anomaly
277.5648°
Rev number
8,989

§ Raw data

QIANFAN-491 62250U 24232P   26145.07599679  .00000101  00000+0  13694-3 0  99952 62250  89.0101  24.8197 0016211  82.7345 277.5648 13.51007860 89891

JSON: /api/v1/satellites/62250 · /tle

For live sub-satellite position, see the globe view (requires WebGL).

§ Visibility from observer

Set your observer location to see the next 7 days of passes ≥ 10°. The values pass through the URL so the page stays shareable.

No JS? Fill the form by hand. The geolocation button needs JavaScript.